Location: Newark
(54.4000°N, 32.4500°E)
Time: 18:56:27
(UTC+00:00)

Envisat - Pass Details

Date: 20 January 2020
Orbit: 764 x 766 km, 98.1° (Epoch: 17 February)

Event Time Altitude Azimuth Distance (km) Brightness Sun altitude
Rises 17:16:42 0° 222° (SW) 3,227 6.8 -27.2°
Reaches altitude 10° 17:20:20 10° 249° (WSW) 2,307 6.3 -27.7°
Maximum altitude 17:22:43 13° 277° (W) 2,093 6.1 -28.0°
Drops below altitude 10° 17:25:06 10° 305° (NW) 2,315 6.2 -28.4°
Sets 17:28:46 0° 333° (NNW) 3,247 6.7 -28.9°
